Regional Weather Roundup
Issued by NWS Jackson, KY

Home | Current Version | Previous Version | Graphics & Text | Print | Product List | Glossary On
Versions: 1 2 3 4 5 6 7 8 9 10 11 12 13 14 15 16 17 18 19 20 21 22 23 24 25 26 27 28 29 30 31 32 33 34 35 36 37 38 39 40 41 42 43 44 45 46 47 48 49 50
000
ASUS43 KJKL 280610
RWRJKL

EAST KENTUCKY HOURLY WEATHER ROUNDUP
NATIONAL WEATHER SERVICE JACKSON KY
200 AM EDT SUN MAY 28 2017

NOTE: "FAIR" INDICATES FEW OR NO CLOUDS BELOW 12,000 FEET WITH
NO SIGNIFICANT WEATHER AND/OR OBSTRUCTIONS TO VISIBILITY.

* THESE REPORTS ARE NOT UNDER NWS QUALITY CONTROL AND MAY NOT
  REPORT WEATHER SUCH AS PRECIPITATION AND FOG.

KYZ079-080-083-085-087-088-110-112-115-119-120-280700
...EASTERN KENTUCKY...

CITY           SKY/WX    TMP DP  RH WIND       PRES   REMARKS
JACKSON        FOG       64  63  96 S6        29.88F VSB 1
6HR MIN TEMP:  63; 6HR MAX TEMP:  65; 6HR PCP:  0.01;

LONDON         CLOUDY    62  59  90 CALM      29.89
6HR MIN TEMP:  62; 6HR MAX TEMP:  74;

SOMERSET*      CLOUDY    61  61 100 W12       29.91R
MONTICELLO*    MOCLDY    63  61  93 W12       29.93R
6HR MIN TEMP:  63; 6HR MAX TEMP:  65; 6HR PCP:  0.87;

WILLIAMSBURG*  CLOUDY    63  63 100 SE8       29.89F
MIDDLESBORO*   CLOUDY    63  62  97 SW3       29.92F
6HR MIN TEMP:  63; 6HR MAX TEMP:  68; 6HR PCP:  0.51;

HARLAN APT*    CLOUDY    61  59  94 CALM      29.91F
PIKE CO APT*   MOCLDY    65  65 100 CALM      29.91R
BIG SANDY APT* MOCLDY    66  65  97 SW5       29.89R
6HR MIN TEMP:  66; 6HR MAX TEMP:  71;

MOREHEAD APT*  MOCLDY    66  61  82 SW6       29.89S
ASHLAND*       MOCLDY    64  63  94 CALM      29.83R
$$

KYZ035-036-041-042-044-050-067-078-099-280700
...CENTRAL KENTUCKY...

CITY           SKY/WX    TMP DP  RH WIND       PRES   REMARKS
MT STERLING*   CLOUDY    63  61  94 SW7       29.87F
FLEMING/MASON* CLOUDY    64  62  91 S6        29.85F
DANVILLE*      CLOUDY    61  61 100 SW10      29.87R
LEXINGTON      CLOUDY    64  59  83 SE10      29.82F
6HR MIN TEMP:  64; 6HR MAX TEMP:  74; 6HR PCP: TRACE;

FRANKFORT      CLOUDY    64  60  87 S5        29.82F
6HR MIN TEMP:  64; 6HR MAX TEMP:  73; 6HR PCP:  0.31;

LOUISVILLE     CLOUDY    67  63  87 S10       29.81F
6HR MIN TEMP:  66; 6HR MAX TEMP:  73; 6HR PCP: TRACE;

LEBANON*         N/A     64  63  94 SW7       29.88R
GLASGOW*       CLOUDY   N/A N/A N/A SW6       29.91R
BOWLING GREEN  CLOUDY    66  64  93 SW8       29.94R
6HR MIN TEMP:  66; 6HR MAX TEMP:  74; 6HR PCP:  0.16;

$$

KYZ091>093-OHZ055-061-077-WVZ005-015-034-035-042-280700
...SOUTHERN OHIO/WEST VIRGINIA...

CITY           SKY/WX    TMP DP  RH WIND       PRES   REMARKS
COVINGTON      MOCLDY    66  62  87 S6        29.80F
COLUMBUS       CLOUDY    67  65  93 E5        29.81F
DAYTON         CLOUDY    66  63  90 E6        29.80F
WILMINGTON     CLOUDY    67  64  90 SW9       29.80F
HUNTINGTON     CLOUDY    67  64  90 S6        29.84S
CHARLESTON     CLOUDY    68  66  93 CALM      29.85R
PINEVILLE*     CLOUDY    64  64  97 MISG      29.95R FOG
BECKLEY        PTCLDY    63  62  97 S5        29.92F
BLUEFIELD      CLOUDY    61  58  90 SW6       29.95F
LOGAN CO APT*  CLOUDY    66  66 100 SW7       29.90R FOG
$$

VAZ002-007-008-TNZ017-027-036-066-071-280700
...SOUTHWEST VIRGINIA/EAST TENNESSEE...

CITY           SKY/WX    TMP DP  RH WIND       PRES   REMARKS
WISE*          CLOUDY    61  61 100 CALM      29.95R
JONESVILLE*      N/A     63  63 100 CALM      29.93F
ABINGDON*      RAIN      63  63 100 SW3       29.90F
BRISTOL        CLOUDY    63  61  93 W5        29.90F
MORRISTOWN*    MOCLDY    63  63 100 CALM      29.91F
SEVIERVILLE*   CLEAR     63  61  94 CALM      29.90F
KNOXVILLE      CLOUDY    64  61  90 NW7       29.91F
LAFOLLETTE*    PTCLDY    63  61  94 CALM      29.95S
OAK RIDGE      CLOUDY    64  62  93 W3        29.95F
CROSSVILLE     CLOUDY    60  59  96 CALM      29.96F
NASHVILLE      RAIN      65  63  93 W9        29.99R FOG
$$

...KEY TO REMARKS...
VSB - VISIBILITY IN MILES
WCI - WIND CHILL INDEX
HX  - HEAT INDEX

$$



USA.gov is the U.S. government's official web portal to all federal, state and local government web resources and services.